Little Rock AFB, AR

3:55 AM CDT on June 29, 2017 (GMT -0500)
Little Rock Air Force Base

Weather History for KLRF - June, 2014

Change the Weather History Date:

Sunday, June 8, 2014

  Actual Average Record
Temperature  
Mean Temperature 69 °F -  
Max Temperature 73 °F 86 °F 96 °F (1988)
Min Temperature 66 °F 64 °F 51 °F (1977)
Cooling Degree Days 4    
Growing Degree Days 19 (Base 50)    
Moisture  
Dew Point 68 °F    
Average Humidity 95    
Maximum Humidity 100    
Minimum Humidity 83    
Precipitation  
Precipitation 1.87 in - - ()
Sea Level Pressure  
Sea Level Pressure 29.95 in    
Wind  
Wind Speed 4 mph (NNE)    
Max Wind Speed 13 mph    
Max Gust Speed 22 mph    
Visibility 7 miles    
Events Rain , Thunderstorm    
Averages and records for this station are not official NWS values.
T = Trace of Precipitation, MM = Missing Value Source: NWS Daily Summary

Daily Weather History Graph

Daily Weather History Graph

Search for Another Location

Airport or City:

Trip Planner

Search our weather history database for the weather conditions in past years. The results will help you decide how hot, cold, wet, or windy it might be!

Date:

Astronomy

Jun. 08, 2014 Rise Set
Actual Time 5:54 AM CDT 8:21 PM CDT
Civil Twilight 5:25 AM CDT 8:50 PM CDT
Nautical Twilight 4:48 AM CDT 9:26 PM CDT
Astronomical Twilight 4:08 AM CDT 10:06 PM CDT
Moon 3:49 PM CDT (6/8) 2:37 AM CDT (6/8)
Length of Visible Light 15h 25m
Length of Day
14h 26m
Waxing Gibbous, 77% of the Moon is Illuminated
Jun 8
Waxing Gibbous
Jun 12
Full
Jun 19
Last Quarter
Jun 27
New
Jul 5
First Quarter

Hourly Weather History & Observations

Time (CDT) Temp. Dew Point Humidity Pressure Visibility Wind Dir Wind Speed Gust Speed Precip Events Conditions
12:58 AM 69.8 °F 69.8 °F 100% 29.91 in 10.0 mi Calm Calm - N/A   Mostly Cloudy
1:58 AM 69.8 °F 69.4 °F 99% 29.91 in 10.0 mi Calm Calm - N/A   Partly Cloudy
2:58 AM 70.0 °F 69.4 °F 98% 29.91 in 10.0 mi Calm Calm - N/A   Scattered Clouds
3:58 AM 69.4 °F 69.1 °F 99% 29.91 in 10.0 mi Calm Calm - N/A   Partly Cloudy
4:58 AM 69.4 °F 69.1 °F 99% 29.92 in 10.0 mi Calm Calm - N/A   Mostly Cloudy
5:58 AM 69.4 °F 69.1 °F 99% 29.94 in 10.0 mi Calm Calm - N/A   Scattered Clouds
6:11 AM 69.8 °F 69.8 °F 100% 29.93 in 10.0 mi Calm Calm - N/A   Light Drizzle
6:20 AM 69.8 °F 69.8 °F 100% 29.93 in 10.0 mi Calm Calm - N/A   Scattered Clouds
6:27 AM 69.8 °F 69.8 °F 100% 29.94 in 10.0 mi Calm Calm - N/A Rain Light Rain
6:54 AM 71.6 °F 69.8 °F 94% 30.00 in 7.0 mi West 10.4 mph 18.4 mph N/A Rain , Thunderstorm Light Thunderstorms and Rain
6:58 AM 71.1 °F 69.4 °F 95% 30.01 in 6.0 mi WNW 10.4 mph - 0.01 in Rain , Thunderstorm Thunderstorms and Rain
7:32 AM 69.8 °F 69.8 °F 100% 30.01 in 5.0 mi NW 4.6 mph - N/A Rain , Thunderstorm Rain
7:33 AM 69.8 °F 69.8 °F 100% 30.01 in 5.0 mi WNW 5.8 mph - N/A Rain , Thunderstorm Thunderstorms and Rain
7:43 AM 69.8 °F 68.0 °F 94% 30.02 in 2.0 mi Calm Calm - N/A Rain , Thunderstorm Thunderstorms and Rain
7:48 AM 69.8 °F 68.0 °F 94% 30.02 in 1.5 mi WNW 1.2 mph - N/A Rain , Thunderstorm Thunderstorms and Rain
7:51 AM 69.8 °F 68.0 °F 94% 30.02 in 1.2 mi Calm Calm - N/A Rain , Thunderstorm Rain
7:56 AM 69.8 °F 68.0 °F 94% 30.02 in 1.8 mi Calm Calm - N/A Rain , Thunderstorm Rain
7:58 AM 69.8 °F 68.0 °F 94% 30.02 in 1.8 mi SE 1.2 mph - 0.15 in Rain , Thunderstorm Rain
8:03 AM 69.8 °F 68.0 °F 94% 30.02 in 3.0 mi Calm Calm - N/A Rain Light Rain
8:12 AM 69.8 °F 68.0 °F 94% 30.02 in 2.5 mi NNE 1.2 mph - N/A Rain , Thunderstorm Thunderstorms and Rain
8:27 AM 69.8 °F 68.0 °F 94% 30.00 in 3.0 mi NE 10.4 mph - N/A Rain Light Rain
8:31 AM 69.8 °F 68.0 °F 94% 29.99 in 5.0 mi NE 9.2 mph - N/A Rain , Thunderstorm Thunderstorms and Rain
8:46 AM 69.8 °F 68.0 °F 94% 29.99 in 7.0 mi NE 8.1 mph - N/A Rain Light Rain
8:55 AM 69.8 °F 68.0 °F 94% 29.99 in 10.0 mi East 9.2 mph - N/A Rain Light Rain
8:58 AM 69.8 °F 68.0 °F 94% 29.99 in 10.0 mi East 8.1 mph - 0.20 in Rain Light Rain
9:18 AM 68.0 °F 68.0 °F 100% 29.98 in 10.0 mi ENE 10.4 mph - N/A Rain Light Rain
9:23 AM 68.0 °F 68.0 °F 100% 29.98 in 10.0 mi ENE 8.1 mph - N/A Rain Light Rain
9:28 AM 68.0 °F 68.0 °F 100% 29.99 in 10.0 mi NE 5.8 mph - N/A Rain Light Rain
9:33 AM 68.0 °F 68.0 °F 100% 29.99 in 10.0 mi NE 5.8 mph - N/A Rain Light Rain
9:58 AM 68.0 °F 68.0 °F 100% 29.99 in 10.0 mi ENE 5.8 mph - 0.02 in Rain Light Rain
10:48 AM 69.8 °F 68.0 °F 94% 30.04 in 10.0 mi North 6.9 mph - N/A Rain Light Rain
10:53 AM 69.8 °F 68.0 °F 94% 30.04 in 10.0 mi Variable 2.3 mph - N/A Rain Light Rain
10:58 AM 70.0 °F 67.3 °F 91% 30.04 in 10.0 mi Variable 2.3 mph - 0.00 in Rain Light Rain
11:13 AM 69.8 °F 68.0 °F 94% 30.02 in 10.0 mi NE 8.1 mph - N/A Rain Light Rain
11:18 AM 69.8 °F 68.0 °F 94% 30.03 in 10.0 mi NE 4.6 mph - N/A Rain Light Rain
11:23 AM 69.8 °F 68.0 °F 94% 30.02 in 10.0 mi NNE 9.2 mph - N/A   Light Drizzle
11:24 AM 69.8 °F 66.2 °F 88% 30.02 in 10.0 mi NNE 8.1 mph - N/A   Scattered Clouds
11:29 AM 69.8 °F 66.2 °F 88% 30.01 in 10.0 mi NNE 9.2 mph - N/A   Mostly Cloudy
11:30 AM 69.8 °F 66.2 °F 88% 30.01 in 10.0 mi NNE 8.1 mph - N/A Rain Light Rain
11:45 AM 69.8 °F 66.2 °F 88% 30.02 in 10.0 mi North 5.8 mph - N/A Rain Light Rain
11:50 AM 69.8 °F 66.2 °F 88% 30.02 in 9.0 mi NNE 5.8 mph - N/A Rain Light Rain
11:58 AM 69.8 °F 66.4 °F 89% 30.01 in 8.0 mi NNE 8.1 mph - 0.03 in Rain Light Rain
12:08 PM 69.8 °F 66.2 °F 88% 30.00 in 10.0 mi NNE 6.9 mph - N/A Rain Light Rain
12:23 PM 69.8 °F 68.0 °F 94% 29.99 in 10.0 mi NE 9.2 mph - N/A Rain Light Rain
12:28 PM 69.8 °F 68.0 °F 94% 29.99 in 10.0 mi NE 6.9 mph - N/A Rain Light Rain
12:31 PM 69.8 °F 68.0 °F 94% 29.99 in 10.0 mi NE 5.8 mph - N/A   Scattered Clouds
12:58 PM 72.1 °F 67.5 °F 85% 29.99 in 10.0 mi NE 9.2 mph - 0.01 in   Mostly Cloudy
1:36 PM 71.6 °F 66.2 °F 83% 29.99 in 10.0 mi NNW 5.8 mph - N/A Rain Light Rain
1:54 PM 69.8 °F 66.2 °F 88% 30.01 in 10.0 mi Variable 2.3 mph - N/A Thunderstorm Thunderstorm
1:57 PM 69.8 °F 66.2 °F 88% 30.04 in 10.0 mi SW 11.5 mph - N/A Rain , Thunderstorm Light Thunderstorms and Rain
1:58 PM 69.8 °F 66.2 °F 88% 30.04 in 10.0 mi WSW 12.7 mph - 0.00 in Rain , Thunderstorm Light Thunderstorms and Rain
2:04 PM 69.8 °F 68.0 °F 94% 30.01 in 4.0 mi Variable 4.6 mph - N/A Rain , Thunderstorm Light Thunderstorms and Rain
2:09 PM 69.8 °F 68.0 °F 94% 29.99 in 1.5 mi NNE 5.8 mph - N/A Rain , Thunderstorm Heavy Thunderstorms and Rain
2:14 PM 69.8 °F 68.0 °F 94% 29.99 in 1.2 mi NE 3.5 mph - N/A Rain , Thunderstorm Heavy Thunderstorms and Rain
2:16 PM 69.8 °F 68.0 °F 94% 29.99 in 1.5 mi NE 3.5 mph - N/A Rain , Thunderstorm Heavy Rain
2:18 PM 69.8 °F 68.0 °F 94% 29.99 in 1.8 mi NNE 4.6 mph - N/A Rain , Thunderstorm Heavy Thunderstorms and Rain
2:23 PM 69.8 °F 68.0 °F 94% 29.98 in 2.5 mi NNE 3.5 mph - N/A Rain , Thunderstorm Thunderstorms and Rain
2:28 PM 68.0 °F 68.0 °F 100% 29.98 in 3.0 mi Variable 1.2 mph - N/A Rain , Thunderstorm Thunderstorms and Rain
2:33 PM 68.0 °F 68.0 °F 100% 29.98 in 3.0 mi NNE 1.2 mph - N/A Rain Light Rain
2:58 PM 68.9 °F 68.4 °F 98% 29.98 in 7.0 mi NNE 3.5 mph - 0.24 in Rain Light Rain
3:03 PM 69.8 °F 68.0 °F 94% 29.96 in 10.0 mi Variable 3.5 mph - N/A Rain Light Rain
3:08 PM 69.8 °F 68.0 °F 94% 29.96 in 10.0 mi ENE 4.6 mph - N/A Rain Light Rain
3:20 PM 69.8 °F 66.2 °F 88% 29.95 in 10.0 mi ENE 6.9 mph - N/A   Partly Cloudy
3:23 PM 69.8 °F 66.2 °F 88% 29.95 in 10.0 mi East 8.1 mph - N/A   Light Drizzle
3:36 PM 69.8 °F 68.0 °F 94% 29.94 in 10.0 mi East 5.8 mph - N/A   Scattered Clouds
3:51 PM 69.8 °F 68.0 °F 94% 29.93 in 10.0 mi East 5.8 mph - N/A   Mostly Cloudy
3:58 PM 70.5 °F 68.5 °F 93% 29.94 in 10.0 mi ENE 9.2 mph - 0.00 in   Mostly Cloudy
4:03 PM 71.6 °F 68.0 °F 88% 29.92 in 10.0 mi ENE 9.2 mph - N/A   Mostly Cloudy
4:13 PM 71.6 °F 66.2 °F 83% 29.92 in 10.0 mi ENE 10.4 mph - N/A   Mostly Cloudy
4:58 PM 72.9 °F 67.5 °F 83% 29.91 in 10.0 mi East 8.1 mph - N/A   Partly Cloudy
5:49 PM 71.6 °F 68.0 °F 88% 29.91 in 10.0 mi East 4.6 mph - N/A Rain Light Rain
5:58 PM 72.3 °F 67.8 °F 86% 29.91 in 10.0 mi ENE 4.6 mph - 0.00 in Rain Light Rain
5:59 PM 71.6 °F 68.0 °F 88% 29.90 in 10.0 mi ENE 4.6 mph - N/A Rain Light Rain
6:11 PM 71.6 °F 69.8 °F 94% 29.91 in 10.0 mi NNW 4.6 mph - N/A   Mostly Cloudy
6:18 PM 71.6 °F 68.0 °F 88% 29.90 in 6.0 mi NNW 5.8 mph - N/A Rain Light Rain
6:23 PM 71.6 °F 69.8 °F 94% 29.89 in 3.0 mi North 6.9 mph - N/A Rain Heavy Rain
6:28 PM 71.6 °F 69.8 °F 94% 29.89 in 3.0 mi NNE 6.9 mph - N/A Rain Light Rain
6:33 PM 71.6 °F 69.8 °F 94% 29.89 in 8.0 mi NNE 6.9 mph - N/A Rain Light Rain
6:39 PM 71.6 °F 69.8 °F 94% 29.88 in 10.0 mi NNE 6.9 mph - N/A   Scattered Clouds
6:58 PM 70.9 °F 69.6 °F 96% 29.88 in 10.0 mi NE 5.8 mph - 0.05 in   Clear
7:58 PM 70.7 °F 69.8 °F 97% 29.88 in 10.0 mi ENE 5.8 mph - N/A   Mostly Cloudy
8:58 PM 70.2 °F 69.6 °F 98% 29.86 in 10.0 mi North 5.8 mph - N/A   Mostly Cloudy
9:06 PM 69.8 °F 69.8 °F 100% 29.87 in 10.0 mi NNW 5.8 mph - N/A Rain Light Rain
9:09 PM 69.8 °F 69.8 °F 100% 29.88 in 10.0 mi WNW 6.9 mph - N/A Rain Light Rain
9:19 PM 68.0 °F 68.0 °F 100% 29.89 in 1.5 mi North 11.5 mph 21.9 mph N/A Rain , Thunderstorm Heavy Rain
9:20 PM 68.0 °F 66.2 °F 94% 29.89 in 1.2 mi North 11.5 mph 21.9 mph N/A Rain , Thunderstorm Heavy Rain
9:21 PM 68.0 °F 66.2 °F 94% 29.89 in 1.2 mi North 10.4 mph 21.9 mph N/A Rain , Thunderstorm Heavy Thunderstorms and Rain
9:26 PM 68.0 °F 66.2 °F 94% 29.92 in 1.8 mi WNW 8.1 mph - N/A Rain , Thunderstorm Thunderstorms and Rain
9:31 PM 68.0 °F 66.2 °F 94% 29.92 in 2.5 mi WNW 10.4 mph - N/A Rain , Thunderstorm Light Thunderstorms and Rain
9:36 PM 68.0 °F 66.2 °F 94% 29.91 in 1.5 mi Variable 4.6 mph - N/A Rain , Thunderstorm Heavy Thunderstorms and Rain
9:41 PM 68.0 °F 66.2 °F 94% 29.90 in 1.2 mi NNE 6.9 mph - N/A Rain , Thunderstorm Heavy Thunderstorms and Rain
9:46 PM 68.0 °F 66.2 °F 94% 29.91 in 1.5 mi NNE 5.8 mph 16.1 mph N/A Rain , Thunderstorm Heavy Thunderstorms and Rain
9:51 PM 68.0 °F 68.0 °F 100% 29.91 in 2.0 mi NNE 6.9 mph 16.1 mph N/A Rain , Thunderstorm Thunderstorms and Rain
9:56 PM 68.0 °F 68.0 °F 100% 29.91 in 3.0 mi North 8.1 mph - N/A Rain , Thunderstorm Thunderstorms and Rain
9:58 PM 67.6 °F 67.3 °F 99% 29.91 in 3.0 mi North 8.1 mph - 0.78 in Rain , Thunderstorm Thunderstorms and Rain
10:02 PM 68.0 °F 66.2 °F 94% 29.92 in 4.0 mi North 4.6 mph - N/A Rain , Thunderstorm Heavy Rain
10:07 PM 68.0 °F 68.0 °F 100% 29.91 in 2.5 mi NE 5.8 mph - N/A Rain Heavy Rain
10:12 PM 68.0 °F 68.0 °F 100% 29.91 in 2.5 mi NNE 5.8 mph - N/A Rain Heavy Rain
10:17 PM 68.0 °F 68.0 °F 100% 29.90 in 3.0 mi NE 8.1 mph - N/A Rain Rain
10:22 PM 68.0 °F 68.0 °F 100% 29.89 in 3.0 mi NNE 9.2 mph - N/A Rain , Thunderstorm Heavy Thunderstorms and Rain
10:37 PM 68.0 °F 68.0 °F 100% 29.89 in 10.0 mi NNE 8.1 mph - N/A Rain Light Rain
10:42 PM 68.0 °F 68.0 °F 100% 29.90 in 10.0 mi NE 6.9 mph - N/A Rain Light Rain
10:47 PM 68.0 °F 68.0 °F 100% 29.90 in 10.0 mi NE 6.9 mph - N/A Rain Light Rain
10:57 PM 68.0 °F 68.0 °F 100% 29.91 in 10.0 mi NE 4.6 mph - N/A Rain , Thunderstorm Light Rain
10:58 PM 67.8 °F 67.5 °F 99% 29.91 in 10.0 mi NE 4.6 mph - 0.28 in Rain , Thunderstorm Light Rain
11:03 PM 68.0 °F 68.0 °F 100% 29.91 in 6.0 mi NE 4.6 mph - N/A Rain Rain
11:13 PM 68.0 °F 68.0 °F 100% 29.90 in 6.0 mi NE 4.6 mph - N/A Rain Light Rain
11:23 PM 68.0 °F 68.0 °F 100% 29.91 in 7.0 mi NNE 5.8 mph - N/A Rain Light Rain
11:28 PM 68.0 °F 68.0 °F 100% 29.90 in 6.0 mi NNE 6.9 mph - N/A Rain Light Rain
11:43 PM 68.0 °F 66.2 °F 94% 29.89 in 10.0 mi NE 8.1 mph - N/A   Overcast
11:53 PM 66.2 °F 66.2 °F 100% 29.90 in 10.0 mi NE 5.8 mph - N/A   Overcast
11:54 PM 66.2 °F 66.2 °F 100% 29.90 in 10.0 mi NE 5.8 mph - N/A   Overcast
11:58 PM 67.1 °F 66.7 °F 99% 29.91 in 10.0 mi NE 4.6 mph - 0.10 in   Overcast